Hourly Data Report for October 17, 2015

All times are specified in Local Standard Time (LST). Add 1 hour to adjust for Daylight Saving Time where and when it is observed.

QIKIQTARJUAQ A
NUNAVUT

67°32'48.000" N
64°01'54.000" W
5.50 m
2400577
YVM

Download Data

Hourly Data (October 2015)
Hourly Data Report for October 17, 2015
Temp Definition
°C
Dew Point Temp Definition
°C
Rel Hum Definition
%
Wind Dir Definition
10's deg

Wind Spd Definition
km/h
Visibility Definition
km
Stn Press Definition
kPa
Hmdx Definition


Wind Chill Definition


Weather Definition


TIME
00:00 Legend Double Dagger -4.0 -7.6 76 18 18 16.1 100.18   -10 LegendNANA
01:00 Legend Double Dagger -5.0 -7.3 84 LegendMM 4 16.1 100.22   -7 LegendNANA
02:00 Legend Double Dagger -3.2 -6.7 77 2 21 16.1 100.23   -9 LegendNANA
03:00 Legend Double Dagger -3.2 -9.9 60 34 9 16.1 100.25   -7 LegendNANA
04:00 Legend Double Dagger -3.5 -7.4 74 2 26 16.1 100.28   -11 LegendNANA
05:00 Legend Double Dagger -3.8 -7.8 74 2 24 16.1 100.32   -11 Snow
06:00 Legend Double Dagger -3.9 -7.9 74 3 24 16.1 100.33   -11 Snow
07:00 Legend Double Dagger -4.0 -8.2 73 2 18 16.1 100.35   -10 Snow
08:00 Legend Double Dagger -4.0 -8.3 72 3 17 16.1 100.37   -10 Snow
09:00 Legend Double Dagger -4.0 -8.5 71 4 15 16.1 100.38   -9 Snow
10:00 Legend Double Dagger -3.9 -8.3 72 4 13 16.1 100.37   -9 Snow
11:00 Legend Double Dagger -4.1 -8.7 70 10 5 16.1 100.38   -6 Snow
12:00 Legend Double Dagger -4.0 -7.6 76 15 5 16.1 100.40   -6 Snow
13:00 Legend Double Dagger -4.1 -8.1 74   0 16.1 100.43     Snow
14:00 Legend Double Dagger -4.2 -7.9 76   0 16.1 100.48     LegendNANA
15:00 Legend Double Dagger -4.5 -7.7 78 LegendMM 4 16.1 100.51   -6 Snow
16:00 Legend Double Dagger -4.8 -7.2 83 LegendMM 4 4.8 100.54   -7 Snow
17:00 Legend Double Dagger -5.3 -7.4 85   0 16.1 100.56     Snow
18:00 Legend Double Dagger -4.6 -9.4 69 22 8 16.1 100.58   -8 LegendNANA
19:00 Legend Double Dagger -4.8 -9.3 71 17 15 16.1 100.59   -10 LegendNANA
20:00 Legend Double Dagger -4.7 -10.0 67 17 15 16.1 100.59   -10 LegendNANA
21:00 Legend Double Dagger -5.2 -9.6 71 18 8 16.1 100.60   -9 LegendNANA
22:00 Legend Double Dagger -5.4 -9.1 75 13 5 16.1 100.60   -8 LegendNANA
23:00 Legend Double Dagger -5.2 -8.9 76 15 8 16.1 100.64   -9 Snow

Notes on Data Quality.

Legend

  • E = Estimated
  • M = Missing
  • NA = Not Available
  • ‡ = Partner data that is not subject to review by the National Climate Archives
Date modified: